| time (UTC) | temp F | wind direction | speed MPH | gust MPH | rain 1hr in | rain 24hr in | rain mn in | humidity % | barometer mb |
| 20260505050803 | 46 | 353 | 2.0 | 9.0 | 0.00 | 0.00 | 0.00 | 77 | 1001.1 |
| 20260505050304 | 46 | 340 | 3.0 | 9.0 | 0.00 | 0.00 | 0.00 | 77 | 1001.1 |
| 20260505041303 | 46 | 21 | 2.0 | 6.0 | 0.00 | 0.02 | 0.00 | 75 | 1001.1 |
| 20260505040803 | 46 | 321 | 3.0 | 8.0 | 0.00 | 0.02 | 0.00 | 74 | 1001.1 |
| 20260505040304 | 46 | 304 | 3.0 | 8.0 | 0.00 | 0.02 | 0.00 | 74 | 1001.1 |
| 20260505035803 | 46 | 302 | 4.0 | 12.0 | 0.00 | 0.02 | 0.00 | 73 | 1001.1 |
| 20260505035304 | 46 | 280 | 3.0 | 10.0 | 0.00 | 0.02 | 0.00 | 74 | 1001.1 |
| 20260505034804 | 47 | 276 | 5.0 | 9.0 | 0.00 | 0.02 | 0.00 | 76 | 1001.1 |
| 20260505033803 | 47 | 243 | 2.0 | 5.0 | 0.00 | 0.02 | 0.00 | 76 | 1000.1 |
| 20260505033303 | 47 | 251 | 2.0 | 8.0 | 0.00 | 0.02 | 0.00 | 76 | 1000.1 |
| 20260505032803 | 47 | 277 | 2.0 | 8.0 | 0.00 | 0.02 | 0.00 | 76 | 1000.1 |
| 20260505032304 | 47 | 262 | 4.0 | 9.0 | 0.00 | 0.02 | 0.00 | 76 | 1000.1 |
| 20260505031804 | 47 | 255 | 3.0 | 12.0 | 0.00 | 0.02 | 0.00 | 75 | 1000.1 |
| 20260505031304 | 47 | 274 | 3.0 | 10.0 | 0.00 | 0.02 | 0.00 | 75 | 1000.1 |
| 20260505030803 | 47 | 243 | 2.0 | 10.0 | 0.00 | 0.02 | 0.00 | 75 | 1000.1 |
| 20260505030303 | 47 | 224 | 3.0 | 12.0 | 0.00 | 0.02 | 0.00 | 74 | 1000.1 |
| 20260505025804 | 47 | 209 | 5.0 | 12.0 | 0.00 | 0.02 | 0.00 | 74 | 1000.1 |
| 20260505025304 | 47 | 201 | 2.0 | 13.0 | 0.00 | 0.02 | 0.00 | 74 | 1000.1 |
| 20260505024803 | 47 | 193 | 3.0 | 13.0 | 0.00 | 0.02 | 0.00 | 73 | 1000.1 |
| 20260505024303 | 47 | 254 | 4.0 | 12.0 | 0.00 | 0.02 | 0.00 | 73 | 1000.1 |
| 20260505023804 | 47 | 243 | 2.0 | 14.0 | 0.00 | 0.02 | 0.00 | 72 | 1000.1 |
| 20260505023303 | 47 | 206 | 7.0 | 14.0 | 0.00 | 0.02 | 0.00 | 72 | 1000.1 |
| 20260505022804 | 47 | 217 | 3.0 | 12.0 | 0.00 | 0.02 | 0.00 | 72 | 1000.1 |
| 20260505022304 | 47 | 183 | 6.0 | 14.0 | 0.00 | 0.02 | 0.00 | 71 | 1000.1 |
| 20260505021803 | 47 | 199 | 3.0 | 9.0 | 0.00 | 0.02 | 0.00 | 71 | 1000.1 |
| 20260505021304 | 47 | 189 | 5.0 | 12.0 | 0.00 | 0.02 | 0.00 | 70 | 1000.1 |
| 20260505020803 | 47 | 207 | 5.0 | 13.0 | 0.00 | 0.02 | 0.00 | 69 | 1000.1 |
| 20260505020303 | 47 | 171 | 4.0 | 9.0 | 0.00 | 0.02 | 0.00 | 69 | 1000.1 |
| 20260505015304 | 46 | 188 | 5.0 | 10.0 | 0.00 | 0.02 | 0.00 | 68 | 1000.1 |
| 20260505014804 | 46 | 201 | 5.0 | 9.0 | 0.00 | 0.02 | 0.00 | 68 | 1000.1 |
| 20260505014303 | 46 | 206 | 3.0 | 13.0 | 0.00 | 0.02 | 0.00 | 67 | 1000.1 |
| 20260505012803 | 46 | 184 | 4.0 | 8.0 | 0.00 | 0.02 | 0.00 | 67 | 1000.1 |
| 20260505012304 | 46 | 182 | 3.0 | 17.0 | 0.00 | 0.02 | 0.00 | 67 | 1000.1 |
| 20260505011304 | 47 | 191 | 3.0 | 7.0 | 0.00 | 0.02 | 0.00 | 66 | 1000.0 |
| 20260505010804 | 47 | 181 | 3.0 | 9.0 | 0.00 | 0.02 | 0.00 | 66 | 1000.0 |
| 20260505010303 | 47 | 172 | 3.0 | 7.0 | 0.00 | 0.02 | 0.00 | 66 | 1000.0 |
| 20260505005804 | 47 | 164 | 2.0 | 6.0 | 0.00 | 0.02 | 0.00 | 65 | 1000.0 |
| 20260505005304 | 47 | 194 | 4.0 | 12.0 | 0.00 | 0.02 | 0.00 | 65 | 1000.0 |
| 20260505004304 | 47 | 200 | 4.0 | 8.0 | 0.00 | 0.02 | 0.00 | 65 | 1000.5 |
| 20260505003804 | 47 | 193 | 3.0 | 9.0 | 0.00 | 0.02 | 0.00 | 65 | 1000.5 |
| 20260505003304 | 47 | 192 | 2.0 | 7.0 | 0.00 | 0.02 | 0.00 | 65 | 1000.5 |
| 20260505002803 | 47 | 171 | 3.0 | 9.0 | 0.00 | 0.02 | 0.00 | 65 | 1000.5 |
| 20260505001303 | 47 | 167 | 2.0 | 6.0 | 0.00 | 0.02 | 0.00 | 64 | 1000.5 |
| 20260505000803 | 47 | 174 | 3.0 | 6.0 | 0.00 | 0.02 | 0.00 | 64 | 1000.5 |
| 20260504235803 | 47 | 172 | 2.0 | 8.0 | 0.00 | 0.02 | 0.00 | 64 | 1000.5 |
| 20260504234803 | 47 | 187 | 3.0 | 8.0 | 0.00 | 0.02 | 0.00 | 64 | 1000.5 |
| 20260504234304 | 47 | 169 | 5.0 | 10.0 | 0.00 | 0.02 | 0.00 | 64 | 1000.5 |
| 20260504233803 | 47 | 187 | 2.0 | 8.0 | 0.00 | 0.02 | 0.00 | 64 | 1000.5 |
| 20260504233304 | 47 | 169 | 3.0 | 7.0 | 0.00 | 0.02 | 0.00 | 65 | 1000.5 |
| 20260504232803 | 47 | 169 | 3.0 | 5.0 | 0.00 | 0.02 | 0.00 | 65 | 1000.5 |
| 20260504231803 | 47 | 168 | 2.0 | 5.0 | 0.00 | 0.02 | 0.00 | 65 | 1000.5 |
| 20260504231303 | 47 | 175 | 2.0 | 5.0 | 0.00 | 0.02 | 0.00 | 65 | 1000.5 |
| 20260504230303 | 47 | 170 | 2.0 | 6.0 | 0.00 | 0.02 | 0.00 | 65 | 1000.5 |
| 20260504225304 | 47 | 177 | 2.0 | 6.0 | 0.00 | 0.02 | 0.00 | 65 | 1000.5 |
| 20260504224304 | 47 | 178 | 2.0 | 7.0 | 0.00 | 0.02 | 0.00 | 66 | 1000.7 |
| 20260504223804 | 47 | 169 | 3.0 | 7.0 | 0.00 | 0.02 | 0.00 | 66 | 1000.7 |
| 20260504223303 | 47 | 180 | 4.0 | 8.0 | 0.00 | 0.02 | 0.00 | 66 | 1000.7 |
| 20260504222804 | 47 | 169 | 3.0 | 6.0 | 0.00 | 0.02 | 0.00 | 67 | 1000.7 |
| 20260504222305 | 47 | 165 | 2.0 | 8.0 | 0.00 | 0.02 | 0.00 | 67 | 1000.7 |
| 20260504221804 | 47 | 168 | 2.0 | 3.0 | 0.00 | 0.02 | 0.00 | 67 | 1000.8 |
| 20260504221304 | 47 | 200 | 2.0 | 3.0 | 0.00 | 0.02 | 0.00 | 68 | 1000.8 |
| 20260504220817 | 47 | 183 | 2.0 | 5.0 | 0.00 | 0.02 | 0.00 | 68 | 1000.8 |
| 20260504220304 | 47 | 166 | 2.0 | 3.0 | 0.00 | 0.02 | 0.00 | 69 | 1000.8 |
| 20260504215802 | 47 | 179 | 1.0 | 3.0 | 0.00 | 0.02 | 0.02 | 69 | 1000.8 |
| 20260504214801 | 47 | 211 | 2.0 | 6.0 | 0.00 | 0.02 | 0.02 | 70 | 1000.8 |
| 20260504214301 | 47 | 170 | 2.0 | 5.0 | 0.00 | 0.02 | 0.02 | 70 | 1000.8 |
| 20260504213802 | 47 | 167 | 2.0 | 5.0 | 0.00 | 0.02 | 0.02 | 71 | 1000.8 |
| 20260504213302 | 47 | 170 | 2.0 | 5.0 | 0.00 | 0.02 | 0.02 | 71 | 1000.8 |
| 20260504212801 | 47 | 186 | 3.0 | 7.0 | 0.00 | 0.02 | 0.02 | 72 | 1000.8 |
| 20260504212303 | 47 | 170 | 3.0 | 7.0 | 0.00 | 0.02 | 0.02 | 72 | 1000.8 |
| 20260504211802 | 47 | 172 | 2.0 | 5.0 | 0.00 | 0.02 | 0.02 | 73 | 1000.8 |
| 20260504211302 | 47 | 185 | 1.0 | 3.0 | 0.00 | 0.02 | 0.02 | 73 | 1000.8 |
| 20260504210802 | 48 | 172 | 3.0 | 5.0 | 0.00 | 0.02 | 0.02 | 74 | 1000.8 |
| 20260504210302 | 48 | 166 | 2.0 | 6.0 | 0.00 | 0.02 | 0.02 | 74 | 1000.8 |
| 20260504205303 | 48 | 171 | 2.0 | 3.0 | 0.00 | 0.02 | 0.02 | 75 | 1000.8 |
| 20260504204802 | 48 | 165 | 2.0 | 5.0 | 0.00 | 0.02 | 0.02 | 75 | 1000.8 |
| 20260504204302 | 48 | 192 | 2.0 | 6.0 | 0.00 | 0.02 | 0.02 | 75 | 1000.8 |
| 20260504203802 | 48 | 182 | 1.0 | 3.0 | 0.00 | 0.02 | 0.02 | 75 | 1000.8 |
| 20260504203302 | 48 | 171 | 3.0 | 6.0 | 0.00 | 0.02 | 0.02 | 75 | 1000.8 |
| 20260504202802 | 48 | 166 | 3.0 | 6.0 | 0.00 | 0.02 | 0.02 | 75 | 1000.8 |
| 20260504202304 | 48 | 159 | 3.0 | 5.0 | 0.00 | 0.02 | 0.02 | 75 | 1000.8 |
| 20260504201802 | 49 | 161 | 2.0 | 3.0 | 0.00 | 0.02 | 0.02 | 75 | 1000.6 |
| 20260504201302 | 49 | 167 | 2.0 | 5.0 | 0.00 | 0.02 | 0.02 | 75 | 1000.6 |
| 20260504200302 | 49 | 158 | 2.0 | 3.0 | 0.00 | 0.02 | 0.02 | 75 | 1000.6 |
| 20260504195802 | 49 | 185 | 2.0 | 5.0 | 0.00 | 0.02 | 0.02 | 74 | 1000.6 |
| 20260504195304 | 49 | 155 | 2.0 | 5.0 | 0.00 | 0.02 | 0.02 | 74 | 1000.6 |
| 20260504194302 | 50 | 159 | 2.0 | 3.0 | 0.00 | 0.02 | 0.02 | 74 | 1000.6 |
| 20260504193802 | 50 | 168 | 2.0 | 3.0 | 0.00 | 0.02 | 0.02 | 73 | 1000.6 |
| 20260504192802 | 51 | 159 | 3.0 | 7.0 | 0.00 | 0.02 | 0.02 | 73 | 1000.6 |
| 20260504192304 | 51 | 157 | 1.0 | 3.0 | 0.00 | 0.02 | 0.02 | 72 | 1000.6 |
| 20260504191802 | 51 | 158 | 2.0 | 3.0 | 0.00 | 0.02 | 0.02 | 72 | 1000.6 |
| 20260504191302 | 51 | 166 | 2.0 | 3.0 | 0.00 | 0.02 | 0.02 | 71 | 1000.6 |
| 20260504190801 | 52 | 172 | 1.0 | 3.0 | 0.00 | 0.02 | 0.02 | 71 | 1000.6 |
| 20260504190303 | 52 | 169 | 2.0 | 6.0 | 0.00 | 0.02 | 0.02 | 70 | 1000.6 |
| 20260504185802 | 52 | 176 | 2.0 | 5.0 | 0.00 | 0.02 | 0.02 | 70 | 1000.6 |
| 20260504185304 | 52 | 190 | 1.0 | 3.0 | 0.00 | 0.02 | 0.02 | 69 | 1000.6 |
| 20260504183802 | 53 | 192 | 2.0 | 5.0 | 0.00 | 0.02 | 0.02 | 68 | 1000.6 |
| 20260504183301 | 53 | 196 | 2.0 | 5.0 | 0.00 | 0.02 | 0.02 | 68 | 1000.6 |
| 20260504182802 | 53 | 191 | 1.0 | 5.0 | 0.00 | 0.02 | 0.02 | 67 | 1000.6 |
| 20260504182304 | 54 | 183 | 2.0 | 6.0 | 0.00 | 0.02 | 0.02 | 67 | 1000.6 |
| 20260504181303 | 54 | 173 | 1.0 | 3.0 | 0.00 | 0.02 | 0.02 | 66 | 1000.6 |
| 20260504180803 | 54 | 224 | 1.0 | 3.0 | 0.00 | 0.02 | 0.02 | 66 | 1000.6 |
| 20260504175802 | 54 | 215 | 5.0 | 10.0 | 0.00 | 0.02 | 0.02 | 65 | 1000.6 |
| 20260504175304 | 55 | 178 | 2.0 | 9.0 | 0.00 | 0.02 | 0.02 | 65 | 1000.6 |
| 20260504174302 | 55 | 241 | 5.0 | 10.0 | 0.00 | 0.02 | 0.02 | 65 | 1000.6 |
| 20260504173802 | 55 | 162 | 3.0 | 8.0 | 0.00 | 0.02 | 0.02 | 64 | 1000.2 |
| 20260504172304 | 55 | 248 | 7.0 | 14.0 | 0.00 | 0.02 | 0.02 | 63 | 1000.2 |
| 20260504171802 | 55 | 222 | 5.0 | 10.0 | 0.00 | 0.02 | 0.02 | 62 | 1000.2 |
| 20260504171302 | 55 | 275 | 5.0 | 9.0 | 0.00 | 0.02 | 0.02 | 61 | 1000.2 |
| 20260504170802 | 55 | 14 | 3.0 | 10.0 | 0.00 | 0.02 | 0.02 | 60 | 1000.2 |
| 20260504170302 | 55 | 245 | 5.0 | 9.0 | 0.00 | 0.02 | 0.02 | 59 | 1000.2 |
| 20260504150802 | 55 | 168 | 5.0 | 10.0 | 0.00 | 0.02 | 0.02 | 80 | 999.9 |
| 20260504150302 | 55 | 157 | 7.0 | 14.0 | 0.00 | 0.02 | 0.02 | 80 | 999.9 |
| 20260504141302 | 54 | 171 | 5.0 | 12.0 | 0.00 | 0.02 | 0.02 | 81 | 999.9 |
| 20260504140802 | 54 | 173 | 6.0 | 12.0 | 0.00 | 0.02 | 0.02 | 82 | 999.9 |
| 20260504140303 | 53 | 171 | 5.0 | 12.0 | 0.00 | 0.02 | 0.02 | 82 | 1000.0 |
| 20260504130802 | 55 | 174 | 3.0 | 9.0 | 0.00 | 0.02 | 0.02 | 82 | 1000.6 |
| 20260504130303 | 54 | 153 | 3.0 | 12.0 | 0.00 | 0.02 | 0.02 | 83 | 1000.6 |
| 20260504120302 | 54 | 165 | 4.0 | 8.0 | 0.00 | 0.02 | 0.02 | 83 | 1000.8 |
| 20260504110302 | 52 | 212 | 4.0 | 10.0 | 0.00 | 0.02 | 0.02 | 86 | 1001.0 |
| 20260504100302 | 49 | 166 | 1.0 | 3.0 | 0.00 | 0.02 | 0.02 | 90 | 1001.4 |
| 20260504081802 | 45 | 211 | 1.0 | 3.0 | 0.00 | 0.02 | 0.02 | 94 | 1001.8 |
| 20260504081303 | 44 | 189 | 0.0 | 3.0 | 0.00 | 0.02 | 0.02 | 94 | 1001.8 |
| 20260504080802 | 44 | 202 | 1.0 | 5.0 | 0.00 | 0.02 | 0.02 | 94 | 1001.8 |
| 20260504080303 | 44 | 157 | 1.0 | 5.0 | 0.00 | 0.02 | 0.02 | 94 | 1001.8 |